Location: Ammerl�gen
(47.2167°N, 9.6000°E)
Time: 11:05:28
(UTC+00:00)

Cosmos 2263 Rocket - Pass Details

Date: 21 April 2021
Orbit: 824 x 848 km, 71.0° (Epoch: 07 May)

Event Time Altitude Azimuth Distance (km) Brightness Sun altitude
Exits shadow 20:51:51 22° 78° (ENE) 1,743 3.6 -22.0°
Drops below altitude 10° 20:54:43 10° 50° (NE) 2,434 4.6 -22.3°
Sets 20:57:33 0° 37° (NE) 3,374 5.5 -22.6°
